Year,Month,Day,Hour,Minute,Value (Times are PST for insolation in W/m^2)
2013,03,22,00,00,0.00
2013,03,22,00,01,0.00
2013,03,22,00,02,0.00
2013,03,22,00,03,0.00
2013,03,22,00,04,0.00
2013,03,22,00,05,0.00
2013,03,22,00,06,0.00
2013,03,22,00,07,0.00
2013,03,22,00,08,0.00
2013,03,22,00,09,0.00
2013,03,22,00,10,0.00
2013,03,22,00,11,0.00
2013,03,22,00,12,0.00
2013,03,22,00,13,0.00
2013,03,22,00,14,0.00
2013,03,22,00,15,0.00
2013,03,22,00,16,0.00
2013,03,22,00,17,0.00
2013,03,22,00,18,0.00
2013,03,22,00,19,0.00
2013,03,22,00,20,0.00
2013,03,22,00,21,0.00
2013,03,22,00,22,0.00
2013,03,22,00,23,0.00
2013,03,22,00,24,0.00
2013,03,22,00,25,0.00
2013,03,22,00,26,0.00
2013,03,22,00,27,0.00
2013,03,22,00,28,0.00
2013,03,22,00,29,0.00
2013,03,22,00,30,0.00
2013,03,22,00,31,0.00
2013,03,22,00,32,0.00
2013,03,22,00,33,0.00
2013,03,22,00,34,0.00
2013,03,22,00,35,0.00
2013,03,22,00,36,0.00
2013,03,22,00,37,0.00
2013,03,22,00,38,0.00
2013,03,22,00,39,0.00
2013,03,22,00,40,0.00
2013,03,22,00,41,0.00
2013,03,22,00,42,0.00
2013,03,22,00,43,0.00
2013,03,22,00,44,0.00
2013,03,22,00,45,0.00
2013,03,22,00,46,0.00
2013,03,22,00,47,0.00
2013,03,22,00,48,0.00
2013,03,22,00,49,0.00
2013,03,22,00,50,0.00
2013,03,22,00,51,0.00
2013,03,22,00,52,0.00
2013,03,22,00,53,0.00
2013,03,22,00,54,0.00
2013,03,22,00,55,0.00
2013,03,22,00,56,0.00
2013,03,22,00,57,0.00
2013,03,22,00,58,0.00
2013,03,22,00,59,0.00
2013,03,22,01,00,0.00
2013,03,22,01,01,0.00
2013,03,22,01,02,0.00
2013,03,22,01,03,0.00
2013,03,22,01,04,0.00
2013,03,22,01,05,0.00
2013,03,22,01,06,0.00
2013,03,22,01,07,0.00
2013,03,22,01,08,0.00
2013,03,22,01,09,0.00
2013,03,22,01,10,0.00
2013,03,22,01,11,0.00
2013,03,22,01,12,0.00
2013,03,22,01,13,0.00
2013,03,22,01,14,0.00
2013,03,22,01,15,0.00
2013,03,22,01,16,0.00
2013,03,22,01,17,0.00
2013,03,22,01,18,0.00
2013,03,22,01,19,0.00
2013,03,22,01,20,0.00
2013,03,22,01,21,0.00
2013,03,22,01,22,0.00
2013,03,22,01,23,0.00
2013,03,22,01,24,0.00
2013,03,22,01,25,0.00
2013,03,22,01,26,0.00
2013,03,22,01,27,0.00
2013,03,22,01,28,0.00
2013,03,22,01,29,0.00
2013,03,22,01,30,0.00
2013,03,22,01,31,0.00
2013,03,22,01,32,0.00
2013,03,22,01,33,0.00
2013,03,22,01,34,0.00
2013,03,22,01,35,0.00
2013,03,22,01,36,0.00
2013,03,22,01,37,0.00
2013,03,22,01,38,0.00
2013,03,22,01,39,0.00
2013,03,22,01,40,0.00
2013,03,22,01,41,0.00
2013,03,22,01,42,0.00
2013,03,22,01,43,0.00
2013,03,22,01,44,0.00
2013,03,22,01,45,0.00
2013,03,22,01,46,0.00
2013,03,22,01,47,0.00
2013,03,22,01,48,0.00
2013,03,22,01,49,0.00
2013,03,22,01,50,0.00
2013,03,22,01,51,0.00
2013,03,22,01,52,0.00
2013,03,22,01,53,0.00
2013,03,22,01,54,0.00
2013,03,22,01,55,0.00
2013,03,22,01,56,0.00
2013,03,22,01,57,0.00
2013,03,22,01,58,0.00
2013,03,22,01,59,0.00
2013,03,22,02,00,0.00
2013,03,22,02,01,0.00
2013,03,22,02,02,0.00
2013,03,22,02,03,0.00
2013,03,22,02,04,0.00
2013,03,22,02,05,0.00
2013,03,22,02,06,0.00
2013,03,22,02,07,0.00
2013,03,22,02,08,0.00
2013,03,22,02,09,0.00
2013,03,22,02,10,0.00
2013,03,22,02,11,0.00
2013,03,22,02,12,0.00
2013,03,22,02,13,0.00
2013,03,22,02,14,0.00
2013,03,22,02,15,0.00
2013,03,22,02,16,0.00
2013,03,22,02,17,0.00
2013,03,22,02,18,0.00
2013,03,22,02,19,0.00
2013,03,22,02,20,0.00
2013,03,22,02,21,0.00
2013,03,22,02,22,0.00
2013,03,22,02,23,0.00
2013,03,22,02,24,0.00
2013,03,22,02,25,0.00
2013,03,22,02,26,0.00
2013,03,22,02,27,0.00
2013,03,22,02,28,0.00
2013,03,22,02,29,0.00
2013,03,22,02,30,0.00
2013,03,22,02,31,0.00
2013,03,22,02,32,0.00
2013,03,22,02,33,0.00
2013,03,22,02,34,0.00
2013,03,22,02,35,0.00
2013,03,22,02,36,0.00
2013,03,22,02,37,0.00
2013,03,22,02,38,0.00
2013,03,22,02,39,0.00
2013,03,22,02,40,0.00
2013,03,22,02,41,0.00
2013,03,22,02,42,0.00
2013,03,22,02,43,0.00
2013,03,22,02,44,0.00
2013,03,22,02,45,0.00
2013,03,22,02,46,0.00
2013,03,22,02,47,0.00
2013,03,22,02,48,0.00
2013,03,22,02,49,0.00
2013,03,22,02,50,0.00
2013,03,22,02,51,0.00
2013,03,22,02,52,0.00
2013,03,22,02,53,0.00
2013,03,22,02,54,0.00
2013,03,22,02,55,0.00
2013,03,22,02,56,0.00
2013,03,22,02,57,0.00
2013,03,22,02,58,0.00
2013,03,22,02,59,0.00
2013,03,22,03,00,0.00
2013,03,22,03,01,0.00
2013,03,22,03,02,0.00
2013,03,22,03,03,0.00
2013,03,22,03,04,0.00
2013,03,22,03,05,0.00
2013,03,22,03,06,0.00
2013,03,22,03,07,0.00
2013,03,22,03,08,0.00
2013,03,22,03,09,0.00
2013,03,22,03,10,0.00
2013,03,22,03,11,0.00
2013,03,22,03,12,0.00
2013,03,22,03,13,0.00
2013,03,22,03,14,0.00
2013,03,22,03,15,0.00
2013,03,22,03,16,0.00
2013,03,22,03,17,0.00
2013,03,22,03,18,0.00
2013,03,22,03,19,0.00
2013,03,22,03,20,0.00
2013,03,22,03,21,0.00
2013,03,22,03,22,0.00
2013,03,22,03,23,0.00
2013,03,22,03,24,0.00
2013,03,22,03,25,0.00
2013,03,22,03,26,0.00
2013,03,22,03,27,0.00
2013,03,22,03,28,0.00
2013,03,22,03,29,0.00
2013,03,22,03,30,0.00
2013,03,22,03,31,0.00
2013,03,22,03,32,0.00
2013,03,22,03,33,0.00
2013,03,22,03,34,0.00
2013,03,22,03,35,0.00
2013,03,22,03,36,0.00
2013,03,22,03,37,0.00
2013,03,22,03,38,0.00
2013,03,22,03,39,0.00
2013,03,22,03,40,0.00
2013,03,22,03,41,0.00
2013,03,22,03,42,0.00
2013,03,22,03,43,0.00
2013,03,22,03,44,0.00
2013,03,22,03,45,0.00
2013,03,22,03,46,0.00
2013,03,22,03,47,0.00
2013,03,22,03,48,0.00
2013,03,22,03,49,0.00
2013,03,22,03,50,0.00
2013,03,22,03,51,0.00
2013,03,22,03,52,0.00
2013,03,22,03,53,0.00
2013,03,22,03,54,0.00
2013,03,22,03,55,0.00
2013,03,22,03,56,0.00
2013,03,22,03,57,0.00
2013,03,22,03,58,0.00
2013,03,22,03,59,0.00
2013,03,22,04,00,0.00
2013,03,22,04,01,0.00
2013,03,22,04,02,0.00
2013,03,22,04,03,0.00
2013,03,22,04,04,0.00
2013,03,22,04,05,0.00
2013,03,22,04,06,0.00
2013,03,22,04,07,0.00
2013,03,22,04,08,0.00
2013,03,22,04,09,0.00
2013,03,22,04,10,0.00
2013,03,22,04,11,0.00
2013,03,22,04,12,0.00
2013,03,22,04,13,0.00
2013,03,22,04,14,0.00
2013,03,22,04,15,0.00
2013,03,22,04,16,0.00
2013,03,22,04,17,0.00
2013,03,22,04,18,0.00
2013,03,22,04,19,0.00
2013,03,22,04,20,0.00
2013,03,22,04,21,0.00
2013,03,22,04,22,0.00
2013,03,22,04,23,0.00
2013,03,22,04,24,0.00
2013,03,22,04,25,0.00
2013,03,22,04,26,0.00
2013,03,22,04,27,0.00
2013,03,22,04,28,0.00
2013,03,22,04,29,0.00
2013,03,22,04,30,0.00
2013,03,22,04,31,0.00
2013,03,22,04,32,0.00
2013,03,22,04,33,0.00
2013,03,22,04,34,0.00
2013,03,22,04,35,0.00
2013,03,22,04,36,0.00
2013,03,22,04,37,0.00
2013,03,22,04,38,0.00
2013,03,22,04,39,0.00
2013,03,22,04,40,0.00
2013,03,22,04,41,0.00
2013,03,22,04,42,0.00
2013,03,22,04,43,0.00
2013,03,22,04,44,0.00
2013,03,22,04,45,0.00
2013,03,22,04,46,0.00
2013,03,22,04,47,0.00
2013,03,22,04,48,0.00
2013,03,22,04,49,0.00
2013,03,22,04,50,0.00
2013,03,22,04,51,0.00
2013,03,22,04,52,0.00
2013,03,22,04,53,0.00
2013,03,22,04,54,0.00
2013,03,22,04,55,0.00
2013,03,22,04,56,0.00
2013,03,22,04,57,0.00
2013,03,22,04,58,0.00
2013,03,22,04,59,0.00
2013,03,22,05,00,0.00
2013,03,22,05,01,0.00
2013,03,22,05,02,0.00
2013,03,22,05,03,0.00
2013,03,22,05,04,0.00
2013,03,22,05,05,0.00
2013,03,22,05,06,0.00
2013,03,22,05,07,0.00
2013,03,22,05,08,0.00
2013,03,22,05,09,0.00
2013,03,22,05,10,0.00
2013,03,22,05,11,0.00
2013,03,22,05,12,0.00
2013,03,22,05,13,0.00
2013,03,22,05,14,0.00
2013,03,22,05,15,0.00
2013,03,22,05,16,0.00
2013,03,22,05,17,0.00
2013,03,22,05,18,0.00
2013,03,22,05,19,0.00
2013,03,22,05,20,0.00
2013,03,22,05,21,0.00
2013,03,22,05,22,0.00
2013,03,22,05,23,0.00
2013,03,22,05,24,0.00
2013,03,22,05,25,0.00
2013,03,22,05,26,0.00
2013,03,22,05,27,0.00
2013,03,22,05,28,0.00
2013,03,22,05,29,0.00
2013,03,22,05,30,0.00
2013,03,22,05,31,0.00
2013,03,22,05,32,0.00
2013,03,22,05,33,0.00
2013,03,22,05,34,0.00
2013,03,22,05,35,0.00
2013,03,22,05,36,0.00
2013,03,22,05,37,0.00
2013,03,22,05,38,0.00
2013,03,22,05,39,0.00
2013,03,22,05,40,0.00
2013,03,22,05,41,0.00
2013,03,22,05,42,0.00
2013,03,22,05,43,0.00
2013,03,22,05,44,0.00
2013,03,22,05,45,0.00
2013,03,22,05,46,0.00
2013,03,22,05,47,0.00
2013,03,22,05,48,0.00
2013,03,22,05,49,0.00
2013,03,22,05,50,0.00
2013,03,22,05,51,0.00
2013,03,22,05,52,0.00
2013,03,22,05,53,0.00
2013,03,22,05,54,0.00
2013,03,22,05,55,0.00
2013,03,22,05,56,0.00
2013,03,22,05,57,0.00
2013,03,22,05,58,0.00
2013,03,22,05,59,0.00
2013,03,22,06,00,0.00
2013,03,22,06,01,0.00
2013,03,22,06,02,0.00
2013,03,22,06,03,0.00
2013,03,22,06,04,0.00
2013,03,22,06,05,0.00
2013,03,22,06,06,0.00
2013,03,22,06,07,0.00
2013,03,22,06,08,0.00
2013,03,22,06,09,0.00
2013,03,22,06,10,0.00
2013,03,22,06,11,0.00
2013,03,22,06,12,0.00
2013,03,22,06,13,0.00
2013,03,22,06,14,0.00
2013,03,22,06,15,0.00
2013,03,22,06,16,0.00
2013,03,22,06,17,0.00
2013,03,22,06,18,0.00
2013,03,22,06,19,0.00
2013,03,22,06,20,0.00
2013,03,22,06,21,0.00
2013,03,22,06,22,0.00
2013,03,22,06,23,0.00
2013,03,22,06,24,0.00
2013,03,22,06,25,0.00
2013,03,22,06,26,0.00
2013,03,22,06,27,0.00
2013,03,22,06,28,0.00
2013,03,22,06,29,0.00
2013,03,22,06,30,0.00
2013,03,22,06,31,0.00
2013,03,22,06,32,0.00
2013,03,22,06,33,0.00
2013,03,22,06,34,0.00
2013,03,22,06,35,0.00
2013,03,22,06,36,0.00
2013,03,22,06,37,0.00
2013,03,22,06,38,0.00
2013,03,22,06,39,0.00
2013,03,22,06,40,0.00
2013,03,22,06,41,0.00
2013,03,22,06,42,0.00
2013,03,22,06,43,0.00
2013,03,22,06,44,0.00
2013,03,22,06,45,0.00
2013,03,22,06,46,0.00
2013,03,22,06,47,0.00
2013,03,22,06,48,0.00
2013,03,22,06,49,0.00
2013,03,22,06,50,0.00
2013,03,22,06,51,0.00
2013,03,22,06,52,0.00
2013,03,22,06,53,0.00
2013,03,22,06,54,0.00
2013,03,22,06,55,0.00
2013,03,22,06,56,0.00
2013,03,22,06,57,0.00
2013,03,22,06,58,0.00
2013,03,22,06,59,0.00
2013,03,22,07,00,0.00
2013,03,22,07,01,0.00
2013,03,22,07,02,0.00
2013,03,22,07,03,0.00
2013,03,22,07,04,0.00
2013,03,22,07,05,0.00
2013,03,22,07,06,0.00
2013,03,22,07,07,0.00
2013,03,22,07,08,0.00
2013,03,22,07,09,0.00
2013,03,22,07,10,0.00
2013,03,22,07,11,0.00
2013,03,22,07,12,0.00
2013,03,22,07,13,0.00
2013,03,22,07,14,0.00
2013,03,22,07,15,0.00
2013,03,22,07,16,0.00
2013,03,22,07,17,0.00
2013,03,22,07,18,0.00
2013,03,22,07,19,0.00
2013,03,22,07,20,0.00
2013,03,22,07,21,0.00
2013,03,22,07,22,0.00
2013,03,22,07,23,0.00
2013,03,22,07,24,0.00
2013,03,22,07,25,0.00
2013,03,22,07,26,0.00
2013,03,22,07,27,0.00
2013,03,22,07,28,0.00
2013,03,22,07,29,0.00
2013,03,22,07,30,3.90
2013,03,22,07,31,5.00
2013,03,22,07,32,5.00
2013,03,22,07,33,5.00
2013,03,22,07,34,5.00
2013,03,22,07,35,5.00
2013,03,22,07,36,5.00
2013,03,22,07,37,5.00
2013,03,22,07,38,5.70
2013,03,22,07,39,7.00
2013,03,22,07,40,7.00
2013,03,22,07,41,7.00
2013,03,22,07,42,8.20
2013,03,22,07,43,9.00
2013,03,22,07,44,10.40
2013,03,22,07,45,11.00
2013,03,22,07,46,11.00
2013,03,22,07,47,11.90
2013,03,22,07,48,12.00
2013,03,22,07,49,12.00
2013,03,22,07,50,12.00
2013,03,22,07,51,12.00
2013,03,22,07,52,12.60
2013,03,22,07,53,14.00
2013,03,22,07,54,14.00
2013,03,22,07,55,15.00
2013,03,22,07,56,17.00
2013,03,22,07,57,18.00
2013,03,22,07,58,18.00
2013,03,22,07,59,18.00
2013,03,22,08,00,18.00
2013,03,22,08,01,18.00
2013,03,22,08,02,18.90
2013,03,22,08,03,20.90
2013,03,22,08,04,21.20
2013,03,22,08,05,23.00
2013,03,22,08,06,23.50
2013,03,22,08,07,25.30
2013,03,22,08,08,26.70
2013,03,22,08,09,28.80
2013,03,22,08,10,31.00
2013,03,22,08,11,32.00
2013,03,22,08,12,32.00
2013,03,22,08,13,32.00
2013,03,22,08,14,30.60
2013,03,22,08,15,30.00
2013,03,22,08,16,30.00
2013,03,22,08,17,31.80
2013,03,22,08,18,32.00
2013,03,22,08,19,32.00
2013,03,22,08,20,32.00
2013,03,22,08,21,32.20
2013,03,22,08,22,33.00
2013,03,22,08,23,33.70
2013,03,22,08,24,35.90
2013,03,22,08,25,37.00
2013,03,22,08,26,38.10
2013,03,22,08,27,39.70
2013,03,22,08,28,40.00
2013,03,22,08,29,40.00
2013,03,22,08,30,40.00
2013,03,22,08,31,41.70
2013,03,22,08,32,42.00
2013,03,22,08,33,42.00
2013,03,22,08,34,42.00
2013,03,22,08,35,41.70
2013,03,22,08,36,40.00
2013,03,22,08,37,40.00
2013,03,22,08,38,40.00
2013,03,22,08,39,40.90
2013,03,22,08,40,42.00
2013,03,22,08,41,43.00
2013,03,22,08,42,45.20
2013,03,22,08,43,48.00
2013,03,22,08,44,52.60
2013,03,22,08,45,57.10
2013,03,22,08,46,61.40
2013,03,22,08,47,62.90
2013,03,22,08,48,67.10
2013,03,22,08,49,70.60
2013,03,22,08,50,76.20
2013,03,22,08,51,77.00
2013,03,22,08,52,76.70
2013,03,22,08,53,74.70
2013,03,22,08,54,70.80
2013,03,22,08,55,68.00
2013,03,22,08,56,65.90
2013,03,22,08,57,63.80
2013,03,22,08,58,62.30
2013,03,22,08,59,62.00
2013,03,22,09,00,62.80
2013,03,22,09,01,64.70
2013,03,22,09,02,69.50
2013,03,22,09,03,76.00
2013,03,22,09,04,83.30
2013,03,22,09,05,86.30
2013,03,22,09,06,88.00
2013,03,22,09,07,87.40
2013,03,22,09,08,86.00
2013,03,22,09,09,85.20
2013,03,22,09,10,82.60
2013,03,22,09,11,78.90
2013,03,22,09,12,75.20
2013,03,22,09,13,71.40
2013,03,22,09,14,67.90
2013,03,22,09,15,65.50
2013,03,22,09,16,65.00
2013,03,22,09,17,66.80
2013,03,22,09,18,72.00
2013,03,22,09,19,77.70
2013,03,22,09,20,85.30
2013,03,22,09,21,92.40
2013,03,22,09,22,97.30
2013,03,22,09,23,97.70
2013,03,22,09,24,95.40
2013,03,22,09,25,91.60
2013,03,22,09,26,87.90
2013,03,22,09,27,84.80
2013,03,22,09,28,84.00
2013,03,22,09,29,84.00
2013,03,22,09,30,84.00
2013,03,22,09,31,87.40
2013,03,22,09,32,92.50
2013,03,22,09,33,100.30
2013,03,22,09,34,107.60
2013,03,22,09,35,113.40
2013,03,22,09,36,115.50
2013,03,22,09,37,114.00
2013,03,22,09,38,114.00
2013,03,22,09,39,114.00
2013,03,22,09,40,114.00
2013,03,22,09,41,114.00
2013,03,22,09,42,116.40
2013,03,22,09,43,121.30
2013,03,22,09,44,130.90
2013,03,22,09,45,141.70
2013,03,22,09,46,148.30
2013,03,22,09,47,148.10
2013,03,22,09,48,144.00
2013,03,22,09,49,140.80
2013,03,22,09,50,138.70
2013,03,22,09,51,137.00
2013,03,22,09,52,137.60
2013,03,22,09,53,140.70
2013,03,22,09,54,145.60
2013,03,22,09,55,148.00
2013,03,22,09,56,148.00
2013,03,22,09,57,145.60
2013,03,22,09,58,142.70
2013,03,22,09,59,139.90
2013,03,22,10,00,137.50
2013,03,22,10,01,138.70
2013,03,22,10,02,141.70
2013,03,22,10,03,144.10
2013,03,22,10,04,148.30
2013,03,22,10,05,151.60
2013,03,22,10,06,156.10
2013,03,22,10,07,159.40
2013,03,22,10,08,156.30
2013,03,22,10,09,151.40
2013,03,22,10,10,148.50
2013,03,22,10,11,148.00
2013,03,22,10,12,148.60
2013,03,22,10,13,150.30
2013,03,22,10,14,151.00
2013,03,22,10,15,151.00
2013,03,22,10,16,152.70
2013,03,22,10,17,154.80
2013,03,22,10,18,155.00
2013,03,22,10,19,155.10
2013,03,22,10,20,156.60
2013,03,22,10,21,161.10
2013,03,22,10,22,166.10
2013,03,22,10,23,170.70
2013,03,22,10,24,174.00
2013,03,22,10,25,174.00
2013,03,22,10,26,173.00
2013,03,22,10,27,172.00
2013,03,22,10,28,176.00
2013,03,22,10,29,183.70
2013,03,22,10,30,194.50
2013,03,22,10,31,199.60
2013,03,22,10,32,199.10
2013,03,22,10,33,186.00
2013,03,22,10,34,171.90
2013,03,22,10,35,172.00
2013,03,22,10,36,178.70
2013,03,22,10,37,182.10
2013,03,22,10,38,186.70
2013,03,22,10,39,195.10
2013,03,22,10,40,210.60
2013,03,22,10,41,230.40
2013,03,22,10,42,250.10
2013,03,22,10,43,257.70
2013,03,22,10,44,248.00
2013,03,22,10,45,229.30
2013,03,22,10,46,213.00
2013,03,22,10,47,209.20
2013,03,22,10,48,214.20
2013,03,22,10,49,224.20
2013,03,22,10,50,237.10
2013,03,22,10,51,247.00
2013,03,22,10,52,262.40
2013,03,22,10,53,276.80
2013,03,22,10,54,303.70
2013,03,22,10,55,344.80
2013,03,22,10,56,332.30
2013,03,22,10,57,315.00
2013,03,22,10,58,315.00
2013,03,22,10,59,305.70
2013,03,22,11,00,287.30
2013,03,22,11,01,279.60
2013,03,22,11,02,284.40
2013,03,22,11,03,305.30
2013,03,22,11,04,248.90
2013,03,22,11,05,226.40
2013,03,22,11,06,209.00
2013,03,22,11,07,201.40
2013,03,22,11,08,200.00
2013,03,22,11,09,200.00
2013,03,22,11,10,349.00
2013,03,22,11,11,513.00
2013,03,22,11,12,513.00
2013,03,22,11,13,288.30
2013,03,22,11,14,176.00
2013,03,22,11,15,176.00
2013,03,22,11,16,176.00
2013,03,22,11,17,176.00
2013,03,22,11,18,207.30
2013,03,22,11,19,304.00
2013,03,22,11,20,304.00
2013,03,22,11,21,371.50
2013,03,22,11,22,602.10
2013,03,22,11,23,605.00
2013,03,22,11,24,605.00
2013,03,22,11,25,604.00
2013,03,22,11,26,600.80
2013,03,22,11,27,599.00
2013,03,22,11,28,599.00
2013,03,22,11,29,256.90
2013,03,22,11,30,118.50
2013,03,22,11,31,118.00
2013,03,22,11,32,118.00
2013,03,22,11,33,118.00
2013,03,22,11,34,117.80
2013,03,22,11,35,115.70
2013,03,22,11,36,116.50
2013,03,22,11,37,125.00
2013,03,22,11,38,125.00
2013,03,22,11,39,327.10
2013,03,22,11,40,619.00
2013,03,22,11,41,620.60
2013,03,22,11,42,623.20
2013,03,22,11,43,627.30
2013,03,22,11,44,631.90
2013,03,22,11,45,631.50
2013,03,22,11,46,632.70
2013,03,22,11,47,635.70
2013,03,22,11,48,636.10
2013,03,22,11,49,638.00
2013,03,22,11,50,638.30
2013,03,22,11,51,640.00
2013,03,22,11,52,640.90
2013,03,22,11,53,643.00
2013,03,22,11,54,643.00
2013,03,22,11,55,643.00
2013,03,22,11,56,644.10
2013,03,22,11,57,645.00
2013,03,22,11,58,646.30
2013,03,22,11,59,648.40
2013,03,22,12,00,651.30
2013,03,22,12,01,652.00
2013,03,22,12,02,652.00
2013,03,22,12,03,652.10
2013,03,22,12,04,654.00
2013,03,22,12,05,654.30
2013,03,22,12,06,656.20
2013,03,22,12,07,656.70
2013,03,22,12,08,656.40
2013,03,22,12,09,657.90
2013,03,22,12,10,660.00
2013,03,22,12,11,661.00
2013,03,22,12,12,662.20
2013,03,22,12,13,663.70
2013,03,22,12,14,665.40
2013,03,22,12,15,667.50
2013,03,22,12,16,669.70
2013,03,22,12,17,670.00
2013,03,22,12,18,672.90
2013,03,22,12,19,675.20
2013,03,22,12,20,677.00
2013,03,22,12,21,677.70
2013,03,22,12,22,680.00
2013,03,22,12,23,680.00
2013,03,22,12,24,680.00
2013,03,22,12,25,681.00
2013,03,22,12,26,682.00
2013,03,22,12,27,682.00
2013,03,22,12,28,682.00
2013,03,22,12,29,685.60
2013,03,22,12,30,687.00
2013,03,22,12,31,688.70
2013,03,22,12,32,690.80
2013,03,22,12,33,692.90
2013,03,22,12,34,693.30
2013,03,22,12,35,696.30
2013,03,22,12,36,698.00
2013,03,22,12,37,698.60
2013,03,22,12,38,700.30
2013,03,22,12,39,701.80
2013,03,22,12,40,703.90
2013,03,22,12,41,706.00
2013,03,22,12,42,707.60
2013,03,22,12,43,707.30
2013,03,22,12,44,707.00
2013,03,22,12,45,707.80
2013,03,22,12,46,709.70
2013,03,22,12,47,711.80
2013,03,22,12,48,710.10
2013,03,22,12,49,710.40
2013,03,22,12,50,714.10
2013,03,22,12,51,715.00
2013,03,22,12,52,715.00
2013,03,22,12,53,716.50
2013,03,22,12,54,719.90
2013,03,22,12,55,721.50
2013,03,22,12,56,724.30
2013,03,22,12,57,729.00
2013,03,22,12,58,732.30
2013,03,22,12,59,733.00
2013,03,22,13,00,734.50
2013,03,22,13,01,736.70
2013,03,22,13,02,739.70
2013,03,22,13,03,744.00
2013,03,22,13,04,747.70
2013,03,22,13,05,755.30
2013,03,22,13,06,764.60
2013,03,22,13,07,770.60
2013,03,22,13,08,773.00
2013,03,22,13,09,777.90
2013,03,22,13,10,784.90
2013,03,22,13,11,788.50
2013,03,22,13,12,790.20
2013,03,22,13,13,793.70
2013,03,22,13,14,797.10
2013,03,22,13,15,801.90
2013,03,22,13,16,808.10
2013,03,22,13,17,813.50
2013,03,22,13,18,817.00
2013,03,22,13,19,819.90
2013,03,22,13,20,828.70
2013,03,22,13,21,834.60
2013,03,22,13,22,840.60
2013,03,22,13,23,842.70
2013,03,22,13,24,845.20
2013,03,22,13,25,845.60
2013,03,22,13,26,854.00
2013,03,22,13,27,863.00
2013,03,22,13,28,867.70
2013,03,22,13,29,870.00
2013,03,22,13,30,870.00
2013,03,22,13,31,870.00
2013,03,22,13,32,870.00
2013,03,22,13,33,870.00
2013,03,22,13,34,862.70
2013,03,22,13,35,790.70
2013,03,22,13,36,773.80
2013,03,22,13,37,761.00
2013,03,22,13,38,754.20
2013,03,22,13,39,750.20
2013,03,22,13,40,747.10
2013,03,22,13,41,744.50
2013,03,22,13,42,742.80
2013,03,22,13,43,740.70
2013,03,22,13,44,740.00
2013,03,22,13,45,740.00
2013,03,22,13,46,738.30
2013,03,22,13,47,739.80
2013,03,22,13,48,741.90
2013,03,22,13,49,741.80
2013,03,22,13,50,740.30
2013,03,22,13,51,743.10
2013,03,22,13,52,748.40
2013,03,22,13,53,753.30
2013,03,22,13,54,756.80
2013,03,22,13,55,758.50
2013,03,22,13,56,758.50
2013,03,22,13,57,758.60
2013,03,22,13,58,761.70
2013,03,22,13,59,765.10
2013,03,22,14,00,770.60
2013,03,22,14,01,774.60
2013,03,22,14,02,779.50
2013,03,22,14,03,782.00
2013,03,22,14,04,784.00
2013,03,22,14,05,782.30
2013,03,22,14,06,778.80
2013,03,22,14,07,791.60
2013,03,22,14,08,795.30
2013,03,22,14,09,800.00
2013,03,22,14,10,800.00
2013,03,22,14,11,496.70
2013,03,22,14,12,216.30
2013,03,22,14,13,213.00
2013,03,22,14,14,215.20
2013,03,22,14,15,217.60
2013,03,22,14,16,220.60
2013,03,22,14,17,237.40
2013,03,22,14,18,265.30
2013,03,22,14,19,790.70
2013,03,22,14,20,787.70
2013,03,22,14,21,784.60
2013,03,22,14,22,778.50
2013,03,22,14,23,774.00
2013,03,22,14,24,769.50
2013,03,22,14,25,749.30
2013,03,22,14,26,731.00
2013,03,22,14,27,455.00
2013,03,22,14,28,264.00
2013,03,22,14,29,611.90
2013,03,22,14,30,741.10
2013,03,22,14,31,737.20
2013,03,22,14,32,735.20
2013,03,22,14,33,736.90
2013,03,22,14,34,738.20
2013,03,22,14,35,740.00
2013,03,22,14,36,740.50
2013,03,22,14,37,742.90
2013,03,22,14,38,743.30
2013,03,22,14,39,739.20
2013,03,22,14,40,734.00
2013,03,22,14,41,724.80
2013,03,22,14,42,714.50
2013,03,22,14,43,708.00
2013,03,22,14,44,702.00
2013,03,22,14,45,696.90
2013,03,22,14,46,691.70
2013,03,22,14,47,686.50
2013,03,22,14,48,684.10
2013,03,22,14,49,680.20
2013,03,22,14,50,682.00
2013,03,22,14,51,682.00
2013,03,22,14,52,682.00
2013,03,22,14,53,682.00
2013,03,22,14,54,682.00
2013,03,22,14,55,683.90
2013,03,22,14,56,689.70
2013,03,22,14,57,701.00
2013,03,22,14,58,707.60
2013,03,22,14,59,660.90
2013,03,22,15,00,642.00
2013,03,22,15,01,642.00
2013,03,22,15,02,210.40
2013,03,22,15,03,165.00
2013,03,22,15,04,165.00
2013,03,22,15,05,165.00
2013,03,22,15,06,275.70
2013,03,22,15,07,650.60
2013,03,22,15,08,645.50
2013,03,22,15,09,641.70
2013,03,22,15,10,639.00
2013,03,22,15,11,639.10
2013,03,22,15,12,640.00
2013,03,22,15,13,638.70
2013,03,22,15,14,635.90
2013,03,22,15,15,633.50
2013,03,22,15,16,633.00
2013,03,22,15,17,634.80
2013,03,22,15,18,626.30
2013,03,22,15,19,624.00
2013,03,22,15,20,624.30
2013,03,22,15,21,626.00
2013,03,22,15,22,625.40
2013,03,22,15,23,625.30
2013,03,22,15,24,628.00
2013,03,22,15,25,629.40
2013,03,22,15,26,631.00
2013,03,22,15,27,631.00
2013,03,22,15,28,632.30
2013,03,22,15,29,633.00
2013,03,22,15,30,633.00
2013,03,22,15,31,633.00
2013,03,22,15,32,635.70
2013,03,22,15,33,636.00
2013,03,22,15,34,636.00
2013,03,22,15,35,636.30
2013,03,22,15,36,638.00
2013,03,22,15,37,638.00
2013,03,22,15,38,637.00
2013,03,22,15,39,636.10
2013,03,22,15,40,636.60
2013,03,22,15,41,635.00
2013,03,22,15,42,633.80
2013,03,22,15,43,631.70
2013,03,22,15,44,629.50
2013,03,22,15,45,629.00
2013,03,22,15,46,626.40
2013,03,22,15,47,622.40
2013,03,22,15,48,619.00
2013,03,22,15,49,616.60
2013,03,22,15,50,612.90
2013,03,22,15,51,611.60
2013,03,22,15,52,609.50
2013,03,22,15,53,608.70
2013,03,22,15,54,610.00
2013,03,22,15,55,609.00
2013,03,22,15,56,609.00
2013,03,22,15,57,611.80
2013,03,22,15,58,609.70
2013,03,22,15,59,604.40
2013,03,22,16,00,597.60
2013,03,22,16,01,591.70
2013,03,22,16,02,581.00
2013,03,22,16,03,570.00
2013,03,22,16,04,558.30
2013,03,22,16,05,552.00
2013,03,22,16,06,551.50
2013,03,22,16,07,549.10
2013,03,22,16,08,546.30
2013,03,22,16,09,544.20
2013,03,22,16,10,545.40
2013,03,22,16,11,545.40
2013,03,22,16,12,515.00
2013,03,22,16,13,518.80
2013,03,22,16,14,530.10
2013,03,22,16,15,526.70
2013,03,22,16,16,522.60
2013,03,22,16,17,515.70
2013,03,22,16,18,512.90
2013,03,22,16,19,507.80
2013,03,22,16,20,505.30
2013,03,22,16,21,500.20
2013,03,22,16,22,498.60
2013,03,22,16,23,503.00
2013,03,22,16,24,503.00
2013,03,22,16,25,333.00
2013,03,22,16,26,134.00
2013,03,22,16,27,118.90
2013,03,22,16,28,114.70
2013,03,22,16,29,114.00
2013,03,22,16,30,114.00
2013,03,22,16,31,125.10
2013,03,22,16,32,114.30
2013,03,22,16,33,113.00
2013,03,22,16,34,114.40
2013,03,22,16,35,118.70
2013,03,22,16,36,125.00
2013,03,22,16,37,132.00
2013,03,22,16,38,132.00
2013,03,22,16,39,132.00
2013,03,22,16,40,132.00
2013,03,22,16,41,132.00
2013,03,22,16,42,132.00
2013,03,22,16,43,132.00
2013,03,22,16,44,132.00
2013,03,22,16,45,349.10
2013,03,22,16,46,414.70
2013,03,22,16,47,408.70
2013,03,22,16,48,406.10
2013,03,22,16,49,403.70
2013,03,22,16,50,400.70
2013,03,22,16,51,398.30
2013,03,22,16,52,394.90
2013,03,22,16,53,391.30
2013,03,22,16,54,388.80
2013,03,22,16,55,387.00
2013,03,22,16,56,384.80
2013,03,22,16,57,381.80
2013,03,22,16,58,379.00
2013,03,22,16,59,376.60
2013,03,22,17,00,373.70
2013,03,22,17,01,369.60
2013,03,22,17,02,367.20
2013,03,22,17,03,364.00
2013,03,22,17,04,359.70
2013,03,22,17,05,356.40
2013,03,22,17,06,352.80
2013,03,22,17,07,351.40
2013,03,22,17,08,348.60
2013,03,22,17,09,345.60
2013,03,22,17,10,344.00
2013,03,22,17,11,342.00
2013,03,22,17,12,339.20
2013,03,22,17,13,336.70
2013,03,22,17,14,334.60
2013,03,22,17,15,330.90
2013,03,22,17,16,327.40
2013,03,22,17,17,325.20
2013,03,22,17,18,322.00
2013,03,22,17,19,319.60